Вернуться в каталог

SL-16 DEB

АктивенPO
NORAD 25401·DEBRIS·🇷🇺 Russia

Запущен Jul 10, 1998 с Baikonur Cosmodrome

Loading…

Ближайшие Пролёты (ближайшие 24 часа)

TLE

СвежийSource: Space-Track

Эпоха: Sep 14, 2026, 07:15 UTC

1 25401U 98043H   26257.30249737 -.00000196  00000-0 -10560-3 0  9996
2 25401  98.5600  13.9158 0161799  89.3324 299.6983 13.94864665432974

Отслеживайте SL-16 DEB в реальном времени с AllMySat

Download on the App Store